This is the latest recevied weather packets stored in our database for station/object K9MWD. If no packets are shown the sender has not sent any weather packets the latest 10 day(s).
| Time | Temp. | Humidity | Pressure | Rain* | Wind** | Luminosity | Snow |
|---|---|---|---|---|---|---|---|
| 1777587760 | 15° C | 91% | 1012.6 hPa | 0 mm | - | 100 W/m² | - |
| 1777587458 | 15° C | 91% | 1012.7 hPa | 0 mm | - | 50 W/m² | - |
| 1777587157 | 15° C | 91% | 1013 hPa | 0 mm | - | 106 W/m² | - |
| 1777586851 | 15° C | 91% | 1012.9 hPa | 0 mm | - | 110 W/m² | - |
| 1777586547 | 15° C | 90% | 1013.1 hPa | 0 mm | - | 89 W/m² | - |
| 1777586243 | 15° C | 90% | 1013.1 hPa | 0 mm | - | 75 W/m² | - |
| 1777585940 | 15° C | 90% | 1013.3 hPa | 0 mm | - | 71 W/m² | - |
| 1777585636 | 15.56° C | 89% | 1013.2 hPa | 1.78 mm | - | 73 W/m² | - |
| 1777585331 | 15.56° C | 89% | 1013.5 hPa | 1.78 mm | - | 70 W/m² | - |
| 1777585026 | 15.56° C | 89% | 1013.5 hPa | 0 mm | - | 52 W/m² | - |
| 1777584723 | 16.11° C | 88% | 1013.7 hPa | 0 mm | - | 34 W/m² | - |
| 1777584421 | 16.11° C | 87% | 1013.7 hPa | 0 mm | - | 28 W/m² | - |
| 1777584116 | 16.11° C | 87% | 1013.3 hPa | 0 mm | - | 33 W/m² | - |
| 1777583816 | 16.67° C | 87% | 1012.9 hPa | 0 mm | - | 33 W/m² | - |
| 1777583512 | 16.11° C | 86% | 1012.9 hPa | 0 mm | - | 39 W/m² | - |
| 1777583211 | 16.67° C | 87% | 1013.4 hPa | 0 mm | - | 34 W/m² | - |
| 1777582906 | 16.67° C | 87% | 1013.3 hPa | 0 mm | - | 26 W/m² | - |
| 1777582604 | 16.67° C | 87% | 1013.3 hPa | 0 mm | - | 30 W/m² | - |
| 1777582299 | 16.67° C | 87% | 1013.5 hPa | 0 mm | - | 33 W/m² | - |
| 1777581997 | 17.22° C | 86% | 1013.7 hPa | 0 mm | - | 31 W/m² | - |
| 1777581692 | 16.67° C | 86% | 1013.2 hPa | 0 mm | - | 47 W/m² | - |
| 1777581387 | 16.67° C | 86% | 1013.3 hPa | 0 mm | - | 45 W/m² | - |
| 1777581086 | 16.67° C | 87% | 1013 hPa | 0 mm | - | 69 W/m² | - |
| 1777580785 | 17.22° C | 86% | 1013.3 hPa | 0 mm | - | 71 W/m² | - |
| 1777580483 | 17.22° C | 86% | 1013.4 hPa | 0 mm | - | 79 W/m² | - |
* Rain latest hour (hover to see other rain measurements)
** Current wind speed in m/s (hover to see current wind gust speed)